GW3491 Weather Reports


time (UTC)temp
C
wind
direction
speed
KPH
gust
KPH
rain 1hr
cm
rain 24hr
cm
rain mn
cm
humidity
%
barometer
mb
20260504235442 18 290 0.0 0.0 0.00 0.00 0.00 21 999.1
20260504234939 18 290 0.0 0.0 0.00 0.00 0.00 20 999.1
20260504234436 18 290 0.0 0.0 0.00 0.00 0.00 19 999.1
20260504233932 19 273 1.6 4.8 0.00 0.00 0.00 19 998.7
20260504233428 19 290 0.0 3.2 0.00 0.00 0.00 19 999.1
20260504232925 19 256 3.2 4.8 0.00 0.00 0.00 19 999.1
20260504232423 19 281 3.2 4.8 0.00 0.00 0.00 18 998.7
20260504231919 20 253 4.8 9.7 0.00 0.00 0.00 20 998.7
20260504231416 20 236 3.2 6.4 0.00 0.00 0.00 18 998.7
20260504230912 20 264 6.4 6.4 0.00 0.00 0.00 18 998.7
20260504230409 20 263 6.4 6.4 0.00 0.00 0.00 18 998.7
20260504225908 20 258 3.2 6.4 0.00 0.00 0.00 19 998.4
20260504225359 20 284 4.8 9.7 0.00 0.00 0.00 18 998.4
20260504224856 20 255 4.8 11.3 0.00 0.00 0.00 16 998.1
20260504224353 20 254 6.4 9.7 0.00 0.00 0.00 16 998.1
20260504223850 20 257 6.4 11.3 0.00 0.00 0.00 15 998.1
20260504223345 20 266 8.0 12.9 0.00 0.00 0.00 15 998.4
20260504222842 20 258 9.7 14.5 0.00 0.00 0.00 14 998.1
20260504222339 20 243 8.0 9.7 0.00 0.00 0.00 14 998.1
20260504221837 20 275 3.2 4.8 0.00 0.00 0.00 17 998.1
20260504221333 20 257 4.8 9.7 0.00 0.00 0.00 18 998.1
20260504220831 20 255 9.7 24.1 0.00 0.00 0.00 18 998.4
20260504220327 20 259 4.8 14.5 0.00 0.00 0.00 17 998.1
20260504215824 20 278 6.4 16.1 0.00 0.00 0.00 20 998.1
20260504215321 20 266 8.0 12.9 0.00 0.00 0.00 19 998.1
20260504214817 18 263 4.8 6.4 0.00 0.00 0.00 20 998.1
20260504214315 20 255 6.4 9.7 0.00 0.00 0.00 17 998.1
20260504213811 20 264 4.8 11.3 0.00 0.00 0.00 19 998.1
20260504213307 20 274 6.4 11.3 0.00 0.00 0.00 19 998.1
20260504212804 20 270 8.0 16.1 0.00 0.00 0.00 18 998.1
20260504212300 20 269 4.8 16.1 0.00 0.00 0.00 16 998.4
20260504211758 20 292 6.4 14.5 0.00 0.00 0.00 13 998.1
20260504211254 20 265 11.3 16.1 0.00 0.00 0.00 18 998.1
20260504210752 20 259 6.4 11.3 0.00 0.00 0.00 17 998.1
20260504210249 20 269 8.0 11.3 0.00 0.00 0.00 18 998.1
20260504205746 19 260 9.7 14.5 0.00 0.00 0.00 19 997.7
20260504205243 19 263 6.4 12.9 0.00 0.00 0.00 19 998.1
20260504204741 19 261 9.7 11.3 0.00 0.00 0.00 19 998.1
20260504204239 19 264 8.0 9.7 0.00 0.00 0.00 19 998.1
20260504203739 19 277 4.8 6.4 0.00 0.00 0.00 19 997.7
20260504203235 19 270 3.2 6.4 0.00 0.00 0.00 19 998.1
20260504202735 18 273 6.4 9.7 0.00 0.00 0.00 20 998.1
20260504202233 18 290 4.8 6.4 0.00 0.00 0.00 19 998.1
20260504201730 18 287 4.8 12.9 0.00 0.00 0.00 19 998.1
20260504201227 18 287 6.4 12.9 0.00 0.00 0.00 19 998.1
20260504200725 19 257 12.9 14.5 0.00 0.00 0.00 19 998.1
20260504200220 19 291 6.4 11.3 0.00 0.00 0.00 20 998.1
20260504195717 20 257 8.0 11.3 0.00 0.00 0.00 19 998.1
20260504195213 19 265 11.3 16.1 0.00 0.00 0.00 19 998.1
20260504194710 20 271 4.8 11.3 0.00 0.00 0.00 18 998.4
20260504194206 19 269 8.0 14.5 0.00 0.00 0.00 19 998.1
20260504193703 20 256 6.4 12.9 0.00 0.00 0.00 20 998.1
20260504193200 19 247 12.9 20.9 0.00 0.00 0.00 19 998.4
20260504192658 18 254 8.0 12.9 0.00 0.00 0.00 19 998.1
20260504192156 18 262 11.3 12.9 0.00 0.00 0.00 20 998.1
20260504191655 18 244 11.3 17.7 0.00 0.00 0.00 19 998.4
20260504191150 18 258 8.0 12.9 0.00 0.00 0.00 18 998.4
20260504190646 18 291 4.8 9.7 0.00 0.00 0.00 19 998.4
20260504190143 18 291 9.7 14.5 0.00 0.00 0.00 20 998.4
20260504185640 18 265 11.3 16.1 0.00 0.00 0.00 20 998.4
20260504185136 18 291 4.8 9.7 0.00 0.00 0.00 19 998.4
20260504184633 18 266 9.7 14.5 0.00 0.00 0.00 20 998.4
20260504184127 18 257 8.0 11.3 0.00 0.00 0.00 21 998.4
20260504183625 18 285 6.4 11.3 0.00 0.00 0.00 21 998.4
20260504183122 18 289 9.7 12.9 0.00 0.00 0.00 21 998.4
20260504182620 18 277 14.5 17.7 0.00 0.00 0.00 20 998.1
20260504182117 17 254 11.3 14.5 0.00 0.00 0.00 18 998.4
20260504181614 18 265 14.5 22.5 0.00 0.00 0.00 20 998.4
20260504181112 18 258 17.7 24.1 0.00 0.00 0.00 20 998.4
20260504180611 18 253 14.5 17.7 0.00 0.00 0.00 20 998.4
20260504180109 18 255 11.3 17.7 0.00 0.00 0.00 20 998.4
20260504175606 18 265 6.4 12.9 0.00 0.00 0.00 20 998.4
20260504175103 18 257 14.5 16.1 0.00 0.00 0.00 20 998.4
20260504174601 18 250 11.3 14.5 0.00 0.00 0.00 20 998.1
20260504174057 18 257 12.9 16.1 0.00 0.00 0.00 20 998.4
20260504173554 18 267 6.4 12.9 0.00 0.00 0.00 20 998.1
20260504173052 17 247 9.7 20.9 0.00 0.00 0.00 20 998.4
20260504172548 17 176 6.4 16.1 0.00 0.00 0.00 20 998.4
20260504172044 17 284 1.6 12.9 0.00 0.00 0.00 18 998.4
20260504171541 17 277 4.8 11.3 0.00 0.00 0.00 18 998.4
20260504171038 17 270 9.7 12.9 0.00 0.00 0.00 18 998.4
20260504170534 17 264 11.3 12.9 0.00 0.00 0.00 18 998.4
20260504150918 15 292 14.5 14.5 0.00 0.00 0.00 17 999.1
20260504150415 15 268 14.5 16.1 0.00 0.00 0.00 18 999.4
20260504140835 13 263 14.5 16.1 0.00 0.00 0.00 20 1000.4
20260504140331 12 254 3.2 14.5 0.00 0.00 0.00 18 1000.4
20260504130759 11 262 9.7 9.7 0.00 0.00 0.00 18 1000.8
20260504130255 11 252 6.4 12.9 0.00 0.00 0.00 18 1000.8
20260504120219 8 258 6.4 6.4 0.00 0.00 0.00 22 1001.1
20260504110647 7 272 1.6 4.8 0.00 0.00 0.00 19 1001.8
20260504110143 7 272 1.6 3.2 0.00 0.00 0.00 19 1001.8
20260504100609 6 264 4.8 4.8 0.00 0.00 0.00 19 1001.4
20260504100108 6 276 1.6 4.8 0.00 0.00 0.00 20 1001.4
20260504082003 6 295 0.0 3.2 0.00 0.00 0.00 18 1001.4
20260504081501 7 261 6.4 11.3 0.00 0.00 0.00 19 1001.4
20260504081001 7 250 4.8 6.4 0.00 0.00 0.00 18 1001.1
20260504080458 7 266 3.2 6.4 0.00 0.00 0.00 18 1001.4
20260504050305 1 291 0.0 0.0 0.00 0.00 0.00 32 1001.1
20260504045802 2 327 0.0 1.6 0.00 0.00 0.00 32 1001.1
20260504045257 2 264 0.0 1.6 0.00 0.00 0.00 30 1001.1
20260504044754 2 9 1.6 1.6 0.00 0.00 0.00 29 1001.1
20260504044252 2 353 1.6 1.6 0.00 0.00 0.00 28 1001.4
20260504043749 3 290 0.0 0.0 0.00 0.00 0.00 28 1001.4
20260504043246 3 347 1.6 1.6 0.00 0.00 0.00 25 1001.4
20260504042744 2 133 1.6 1.6 0.00 0.00 0.00 28 1001.1
20260504042240 3 274 0.0 1.6 0.00 0.00 0.00 28 1001.1
20260504041736 3 231 1.6 1.6 0.00 0.00 0.00 27 1001.4
20260504041232 3 49 1.6 1.6 0.00 0.00 0.00 26 1001.1
20260504040728 3 287 0.0 0.0 0.00 0.00 0.00 28 1000.8
20260504040226 3 332 0.0 1.6 0.00 0.00 0.00 28 1000.8
20260504035722 3 31 1.6 1.6 0.00 0.00 0.00 25 1000.8
20260504035219 4 273 0.0 0.0 0.00 0.00 0.00 22 1000.8
20260504034717 5 278 0.0 0.0 0.00 0.00 0.00 21 1000.8
20260504034214 5 285 0.0 0.0 0.00 0.00 0.00 21 1000.8
20260504033712 5 285 0.0 0.0 0.00 0.00 0.00 22 1000.8
20260504033209 5 287 0.0 0.0 0.00 0.00 0.00 21 1001.1
20260504032705 6 276 0.0 0.0 0.00 0.00 0.00 21 1000.8
20260504032203 6 292 0.0 1.6 0.00 0.00 0.00 21 1000.8
20260504031659 6 291 0.0 0.0 0.00 0.00 0.00 20 1000.8
20260504031156 6 292 0.0 0.0 0.00 0.00 0.00 20 1000.8
20260504030652 6 292 0.0 0.0 0.00 0.00 0.00 19 1000.8
20260504030149 6 291 0.0 1.6 0.00 0.00 0.00 19 1001.1
20260504025646 6 271 3.2 3.2 0.00 0.00 0.00 19 1000.8
20260504025142 6 281 3.2 3.2 0.00 0.00 0.00 19 1000.8
20260504024634 6 272 1.6 3.2 0.00 0.00 0.00 19 1000.8
20260504024131 6 279 0.0 1.6 0.00 0.00 0.00 19 1000.8
20260504023627 6 272 0.0 0.0 0.00 0.00 0.00 19 1000.8
20260504023124 6 287 0.0 1.6 0.00 0.00 0.00 19 1001.1
20260504022620 7 279 1.6 1.6 0.00 0.00 0.00 18 1000.8
20260504022116 7 274 1.6 3.2 0.00 0.00 0.00 19 1000.8
20260504021614 7 276 3.2 4.8 0.00 0.00 0.00 19 1000.8
20260504021110 7 260 3.2 4.8 0.00 0.00 0.00 19 1000.8
20260504020608 7 270 3.2 4.8 0.00 0.00 0.00 19 1001.1
20260504020104 7 271 3.2 6.4 0.00 0.00 0.00 18 1000.8
20260504015600 7 259 3.2 6.4 0.00 0.00 0.00 18 1000.8
20260504015056 8 277 6.4 9.7 0.00 0.00 0.00 22 1000.8
20260504014552 8 283 6.4 6.4 0.00 0.00 0.00 22 1000.8
20260504014050 8 284 6.4 6.4 0.00 0.00 0.00 22 1000.8
20260504013547 8 281 6.4 6.4 0.00 0.00 0.00 22 1001.1
20260504013044 8 282 8.0 11.3 0.00 0.00 0.00 22 1001.1
20260504012541 8 275 4.8 6.4 0.00 0.00 0.00 22 1000.8
20260504012039 8 281 4.8 6.4 0.00 0.00 0.00 22 1000.8
20260504011536 8 282 4.8 6.4 0.00 0.00 0.00 22 1000.8
20260504011032 8 281 4.8 6.4 0.00 0.00 0.00 22 1000.8
20260504010527 8 273 6.4 6.4 0.00 0.00 0.00 22 1000.4
20260504010024 8 274 6.4 6.4 0.00 0.00 0.00 22 1000.4
20260504005521 8 286 3.2 4.8 0.00 0.00 0.00 22 1000.4
20260504005018 8 281 4.8 4.8 0.00 0.00 0.00 22 1000.4
20260504004516 8 285 4.8 6.4 0.00 0.00 0.00 22 1000.4
20260504004013 8 286 4.8 6.4 0.00 0.00 0.00 22 1000.1
20260504003509 8 294 6.4 11.3 0.00 0.00 0.00 22 1000.1
20260504003006 8 289 6.4 9.7 0.00 0.00 0.00 22 1000.1
20260504002503 8 297 8.0 11.3 0.00 0.00 0.00 22 1000.1
20260504002000 8 295 4.8 9.7 0.00 0.00 0.00 22 1000.1
20260504001457 8 294 8.0 11.3 0.00 0.00 0.00 22 1000.1
20260504000954 8 292 6.4 12.9 0.00 0.00 0.00 22 999.7
20260504000451 8 288 8.0 9.7 0.00 0.00 0.00 22 999.7
20260503235948 8 290 6.4 9.7 0.00 0.00 0.00 22 999.4